Погода Большие Уки

Погода Большие Уки : погода сейчас, прогноз погоды и архив. Всё, что Вы хотите узнать о погоде Большие Уки!

Хотите узнать прогноз погоды Большие Уки? Тогда Вам сюда: Погода Большие Уки

Поиск расширенной информации на нашем сайте:

Полезная информация: Все для депиляции воском.

Другие новости

Новости СМИ2

Главная страница сайта

Новости сайта

03.07.2017

Напоминаем, что на нашем специализированном сайте Метеоцентр.Азия вы можете получить высокодетализированные автоматические прогнозы погоды по пунктам России, СНГ и мира в авиационном формате (включающие направление и скорость ветра, видимость, явления погоды, количество и форму облачности, нижнюю и верхнюю границу облачности).

Рекомендуем: форум отзывов о скидках купонаторов Москвы

Погода Большие Уки - сегодня

Время (UTC), дата Ветер
(°,м/с) 
Видим.   Явления Облачность Т
(°С)
Тd
(°С)
f(%) Тe
(°С)
Pmin
(гПа)
dP
(гПа)
Po
(мм)
O2
(г/м3)
Тmin Tmax R s Состояние
почвы
18 20.08.17 тихо ()   10 км    6/4 1000 м средняя, верхняя 
[Sc|Ac trans|Ci]
+11.4 +11.4 100 +14  1020.1  0.3  758  291           
21 20.08.17 тихо ()   10 км    6/4 1000 м верхняя 
[Sc|Ci]
+12.2 +12.1 99 +16  1019.8  -0.2  758  290           
00 21.08.17 130 (ЮВ) 10 км    8/6 600 м верхняя 
[Sc|Ci]
+10.2 +10.2 100 +12  1020.1  0.3  758  293           
03 21.08.17 200 (Ю) 20000 м    4/1 1000 м средняя, верхняя 
[Sc|Ac trans|Ci]
+15.6 +14.3 92 +24  1020.7  0.8  759  286  +10.2        сухая 
06 21.08.17 250 (З) 20000 м    4/3 1000 м верхняя 
[Cu med, cong|Ci fib]
+23.2 +14.8 59 +31  1020.2  -0.3  759  279           
09 21.08.17 290 (З) 20000 м    9/6 600 м верхняя 
[Cu med, cong|Ci fib]
+23.2 +14.3 57 +30  1019.5  -0.7  758  279           
12 21.08.17 290 (З) 20000 м    8/4 1000 м верхняя 
[Cu med, cong|Ci fib]
+24.8 +12.4 46 +29  1019.1  -0.4  758  278           
15 21.08.17 тихо ()   10 км    9/3 600 м средняя, верхняя 
[Sc|Ac trans|Ci fib]
+17.8 +14.8 83 +26  1019.6  0.3  758  284    +25.3       
18 21.08.17 тихо ()   10 км    5/0 верхняя 
[Ci fib]
+13.6 +13.6 100 +20  1019.9  0.2  758  288           
21 21.08.17 210 (ЮЗ) 10 км    3/0 верхняя 
[Ci fib]
+12.3 +12.3 100 +18  1019.9  758  290           
00 22.08.17 230 (ЮЗ) 4000 м  дымка  4/0 верхняя 
[Ci fib]
+11.9 +11.9 100 +17  1020  0.1  758  291           
03 22.08.17 240 (ЮЗ) 20000 м    3/0 средняя, верхняя 
[Ac trans|Ci fib]
+18.2 +16.1 88 +30  1020.2  0.4  759  283  +11.9        сухая 
06 22.08.17 280 (З) 20000 м    8/1 600 м верхняя 
[Cu hum|Ci]
+23.7 +16.9 66 +36  1019.8  -0.3  758  278           
09 22.08.17 290 (З) 3{10}  20000 м    10/5 600 м средняя, верхняя 
[Sc|Ac trans|Ci]
+24.5 +16.8 62 +36  1019.4  -0.4  758  277           
12 22.08.17 330 (СЗ) 20000 м    6/3 600 м верхняя 
[Cu med, cong|Ci]
+25.4 +17.5 62 +38  1019  -0.3  758  276           
15 22.08.17 310 (СЗ) 10 км    3/0 верхняя 
[Ci fib]
+19.8 +15.9 78 +31  1020.4  1.2  759  282    +26.3       
18 22.08.17 340 (С) 10 км    1/0 верхняя 
[Ci fib]
+15.5 +14.8 96 +25  1021.6  1.1  760  287           
21 22.08.17 тихо ()   10 км    ясно 
+13.4 +13.4 100 +19  1022.6  0.9  760  289           
00 23.08.17 тихо ()   10 км    10/8 600 м верхняя 
[Sc|Ci fib]
+14.5 +14.5 100 +22  1023.3  0.7  761  288           
03 23.08.17 230 (ЮЗ) 20000 м    10/1 600 м верхняя 
[Sc|Ci fib]
+19.7 +16.1 80 +31  1024.4  1.2  762  283  +12.7        сухая 
06 23.08.17 290 (З) 20000 м    ясно 
+25.4 +18.1 64 +39  1024.2  762  277           
09 23.08.17 350 (С) 20000 м    3/1 600 м средняя, верхняя 
[Cu hum|Ac trans|Ci fib]
+27.5 +16.8 52 +39  1024  0.1  762  275           
12 23.08.17 330 (СЗ) 20000 м    3/0 верхняя 
[Ci fib]
+27.6 +15.5 48 +37  1024  762  276           
15 23.08.17 тихо ()   10 км    3/0 верхняя 
[Ci fib]
+20.1 +18 88 +34  1024.4  0.2  762  282    +27.9       
18 23.08.17 тихо ()   10 км  туман поземный  ясно 
+16.4 +16.4 100 +27  1024.7  0.1  762  286           
Время (UTC), дата Ветер
(°,м/с) 
Видим.   Явления Облачность Т
(°С)
Тd
(°С)
f(%) Тe
(°С)
Pmin
(гПа)
dP
(гПа)
Po
(мм)
O2
(г/м3)
Тmin Tmax R s Состояние
почвы

Для получения пояснительной информации подведите курсор к названию столбца.

ПОГОДА Большие Уки - архив

Всё, что Вы хотите узнать о погоде Большие Уки - удобно и подробно!

Выберите нужную дату (начиная с 1 января 2015* года) и нажмите кнопку "Найти".
Будут отображены архивные сводки погоды по пункту Большие Уки, начиная с указанной даты.


Отображать данные в формате CSV (для использования в таблицах Excel)


Внимание! Наш архив погоды предназначен исключительно для личного некоммерческого использования в познавательных целях. Если Вам необходимы официальные справки о состоянии погоды (для производственных, юридических, коммерческих и т.п. целей), обращайтесь в органы Росгидромета.

*Примечание: данная дата относится к архиву по метеостанциям СССР (Россия, СНГ, Балтия).
Архив по метеостанциям Зарубежной Европы и Азии (кроме Китая) хранится 10 дней, по другим регионам земного шара (Китай, Африка, Америка, Австралия, Океания) - 1 день.

Большие Уки - район местоположения метеостанции


Название, широта, долгота, высота метеостанции:
Большие Уки 56.9°ш. 72.7°д. 87 м над ур. моря [Российская Федерация]

Дополнительная информация

В oтличие oт бoльшинства пoгoдных сайтoв мы публикуем пoдрoбную метеoинфoрмацию в детальнoм прoфессиoнальнoм фoрмате.

Характеристики температуры и влажнoсти вoздуха измеряются на высoте 2 м в тени вдали oт зданий и деревьев.
Скoрoсть ветра измеряется на высoте 10 м (на урoвне рoста челoвека скoрoсть ветра ниже в 1.5-2 раза). Если метеoстанция нахoдится в гoрoде или в лесу, тo скoрoсть ветра занижена на 2-4 м/с пo сравнению с oткрытым местoм. Скoрoсть ветра над акватoриями крупных рек и oзёр, а также на вершинах хoлмoв на 2-5 м/с выше, чем в oбычных услoвиях.
Атмoсфернoе давление в разных тoчках местнoсти мoжет значительнo oтличаться oт давления на метеoстанции, в зависимoсти oт услoвий рельефа (при пoдъёме на 10 м давление пoнижается примернo на 1 мм рт.ст.).